Tracking 19795 objects as of 17-Jul-2019
HD Live streaming from Space Station
objects crossing your sky now

NOAA 16 DEB

Track NOAA 16 DEB now!
10-day predictions


NORAD ID: 41302
Int'l Code: 2000-055HE
Perigee: 852.3 km
Apogee: 889.8 km
Inclination: 98.9 °
Period: 102.2 minutes
Semi major axis: 7242 km
RCS: Unknown
Launch date: September 21, 2000
Source: United States (US)
Launch site: AIR FORCE WESTERN TEST RANGE (AFWTR)

Note: This is SATELLITE DEBRIS
aabbcc
Your satellite tracking list
Your tracking list is empty




NASA's NSSDC Master Catalog

Two Line Element Set (TLE):
1 41302U 00055HE  19197.40117052  .00000520  00000-0  32632-3 0  9993
2 41302  98.8623 264.9844 0025887 196.6589 163.3732 14.08663387182427
Source of the keplerian elements: AFSPC